840  
NZUS99 KSGF 260607  
HRRSGF  
 
HOURLY WEATHER  
NATIONAL WEATHER SERVICE SPRINGFIELD MO  
100 AM CDT TUE MAR 26 2019  
   
.....SGF CWA...
 
 
 
CITY SKY/WX TMP DP RH WIND PRES REMARKS  
SPRINGFIELD CLOUDY 44 40 85 CALM 30.30F  
6HR MIN TEMP: 44; 6HR MAX TEMP: 50;  
 
JOPLIN CLEAR 44 43 96 CALM 30.33S FOG  
6HR MIN TEMP: 43; 6HR MAX TEMP: 52;  
 
WEST PLAINS CLEAR 43 40 89 N6 30.30S  
6HR MIN TEMP: 42; 6HR MAX TEMP: 50;  
 
ROLLA CLEAR 41 33 73 E6 30.31F  
6HR MIN TEMP: 41; 6HR MAX TEMP: 51;  
 
OSAGE BEACH CLEAR 39 35 86 CALM 30.32F  
BRANSON PTCLDY 43 43 100 CALM 30.31F FOG  
   
.....SURROUNDING SGF CWA...
 
 
 
CITY SKY/WX TMP DP RH WIND PRES REMARKS  
CHANUTE FOG 39 39 100 CALM 30.34S VSB 3/4  
PARSONS CLEAR 40 40 100 CALM 30.35R  
COFFEYVILLE CLEAR 44 42 93 NW3 30.34R  
EMPORIA CLEAR 38 38 100 CALM 30.34S FOG  
GROVE OK CLOUDY 45 43 93 CALM 30.33F  
ROGERS AR CLOUDY 48 44 86 CALM 30.32F  
SILOAM SPRINGS CLOUDY 49 44 83 N5 30.33S  
HARRISON AR PTCLDY 45 43 93 CALM 30.30F  
NEAR YELLVILLE MOCLDY 48 42 80 CALM 30.31F  
   
.....KANSAS AND MISSOURI...
 
 
 
CITY SKY/WX TMP DP RH WIND PRES REMARKS  
KANSAS CTY INT CLEAR 40 36 86 NE9 30.35R WCI 34  
DOWNTOWN KC CLEAR 47 38 71 NE6 30.35R  
COLUMBIA CLOUDY 45 36 70 NE8 30.33S  
SEDALIA CLOUDY 49 37 63 E8 30.33R  
ST JOSEPH MOCLDY 43 37 79 NE5 30.36S  
ST LOUIS MOCLDY 44 31 60 N9 30.34R  
SPIRIT OF STL CLOUDY 46 33 60 N8 30.34R  
KIRKSVILLE CLEAR 39 33 79 NE6 30.35S WCI 35  
WICHITA CLEAR 41 36 82 SE6 30.33F  
TOPEKA CLEAR 40 36 86 CALM 30.35S  
OLATHE CLEAR 43 37 79 N6 30.34S  
   
.....TENNESSEE...
 
 
 
CITY SKY/WX TMP DP RH WIND PRES REMARKS  
MEMPHIS CLOUDY 51 43 74 N10 30.24R  
NASHVILLE CLOUDY 48 38 68 N13 30.18S  
   
.....ARKANSAS....
 
 
 
CITY SKY/WX TMP DP RH WIND PRES REMARKS  
FAYETTEVILLE CLOUDY 49 42 77 N5 30.31F  
FT SMITH CLEAR 51 44 77 N5 30.31F  
LITTLE ROCK PTCLDY 50 42 74 N9 30.28R  
   
.....OKLAHOMA....
 
 
 
CITY SKY/WX TMP DP RH WIND PRES REMARKS  
TULSA PTCLDY 49 43 80 CALM 30.33F  
PONCA CITY CLEAR 41 37 86 CALM 30.36R FOG  
MCALESTER PTCLDY 53 44 71 N3 30.31F  
OKLAHOMA CITY CLEAR 45 41 86 N6 30.34R  
   
.....IOWA.........
 
 
 
CITY SKY/WX TMP DP RH WIND PRES REMARKS  
DES MOINES PTCLDY 36 32 85 CALM 30.37R  
QUAD CITIES FAIR 29 19 66 E5 30.39R WCI 24  
   
.....ILLINOIS.....
 
 
 
CITY SKY/WX TMP DP RH WIND PRES REMARKS  
QUINCY CLEAR 39 26 59 E12 30.35R WCI 32  
CHICAGO FAIR 27 18 69 N7 30.38S WCI 19  
 
 
 
CLICK HERE TO GO TO PREVIOUS BULLETINS.

The Nexlab MO Page
The Nexlab KS Page Main Text Page